Powrót do katalogu

BEIDOU 11

AktywnyNawigacjaGEO
NORAD 38091·PAYLOAD·🇨🇳 China

Wystrzelony Feb 24, 2012 z Xichang Satellite Launch Center

Loading…

TLE

ŚwieżeSource: Space-Track

Epoka: Sep 14, 2026, 22:38 UTC

1 38091U 12008A   26257.94314750  .00000051  00000-0  00000-0 0  9993
2 38091   3.7927  69.0485 0006743 240.3016  82.8063  1.00268840 53261

Śledź BEIDOU 11 w czasie rzeczywistym z AllMySat

Download on the App Store